Weather reports worldwide

Advertisment
St-Hubert, Belgium (6476): temperature & dewpoint: 18.10.2020 00:00:00 - 24.10.2020 00:00:00 (CEST)St-Hubert, Belgium (6476): wind speed & gusts: 18.10.2020 00:00:00 - 24.10.2020 00:00:00 (CEST)St-Hubert, Belgium (6476): wind direction: 18.10.2020 00:00:00 - 24.10.2020 00:00:00 (CEST)St-Hubert, Belgium (6476): reduced air pressure: 18.10.2020 00:00:00 - 24.10.2020 00:00:00 (CEST)St-Hubert, Belgium (6476): visibility: 18.10.2020 00:00:00 - 24.10.2020 00:00:00 (CEST)
Date & Time tt [°C] td [°C] ff [km/h] ff [kn] fx [km/h] fx [kn] dd ppp [hPa] vv [km]
24.10.2020 00:00:00 10,6 9,5 14 8 29 16 SW 1014,8 5
23.10.2020 23:00:00 10,1 9,2 11 6 - - SSW 1014,3 4,1
23.10.2020 22:00:00 10,2 9,3 11 6 18 10 SSW 1014,0 2,6
23.10.2020 21:00:00 10,7 9,9 7 4 18 10 SW 1013,4 0,2
23.10.2020 20:00:00 11,1 10,2 11 6 - - SW 1013,1 0,2
23.10.2020 19:00:00 11,3 10,2 11 6 22 12 SW 1012,5 -
23.10.2020 18:00:00 12,0 10,8 11 6 18 10 SW 1012,1 22
23.10.2020 17:00:00 12,0 10,7 11 6 - - SW 1011,7 40
23.10.2020 16:00:00 11,6 10,3 7 4 18 10 SSW 1011,5 40
23.10.2020 15:00:00 11,5 10,0 7 4 25 14 SW 1011,7 45
23.10.2020 14:00:00 11,7 10,7 11 6 - - SSW 1011,8 3,9
23.10.2020 13:00:00 12,2 10,8 14 8 25 14 SSW 1011,8 26
23.10.2020 12:00:00 11,9 10,6 14 8 25 14 SSW 1012,0 28
23.10.2020 11:00:00 11,6 10,4 11 6 - - SSW 1012,0 19
23.10.2020 10:00:00 11,3 10,2 7 4 18 10 S 1012,1 11
23.10.2020 09:00:00 11,3 10,2 7 4 18 10 SSW 1012,0 24
23.10.2020 08:00:00 11,4 10,4 11 6 - - SSW 1012,0 35
23.10.2020 07:00:00 11,5 10,6 11 6 22 12 SW 1011,9 15
23.10.2020 06:00:00 11,7 10,8 11 6 18 10 SSW 1012,2 14
23.10.2020 05:00:00 11,9 10,8 11 6 - - SSW 1012,6 15
23.10.2020 04:00:00 12,1 11,0 7 4 25 14 SSW 1012,9 30
23.10.2020 03:00:00 12,2 11,0 11 6 25 14 SW 1013,4 12
23.10.2020 02:00:00 12,3 11,1 11 6 - - SW 1013,7 13
23.10.2020 01:00:00 12,4 11,2 14 8 29 16 SSW 1013,6 10
23.10.2020 00:00:00 12,7 11,5 14 8 25 14 SSW 1013,8 10
22.10.2020 23:00:00 12,8 11,8 14 8 - - S 1013,6 9
22.10.2020 22:00:00 12,5 11,2 14 8 29 16 SSW 1013,7 24
22.10.2020 21:00:00 13,0 11,5 18 10 25 14 SSW 1013,3 27
22.10.2020 20:00:00 13,3 12,0 14 8 - - SSW 1013,4 22
22.10.2020 19:00:00 12,0 10,7 11 6 29 16 SSW 1013,5 14
22.10.2020 18:00:00 14,1 12,2 11 6 25 14 SSW 1012,5 14
22.10.2020 17:00:00 15,7 11,7 14 8 - - SSW 1012,2 30
22.10.2020 16:00:00 14,9 11,7 14 8 32 18 SSW 1012,4 30
22.10.2020 15:00:00 15,2 11,7 14 8 29 16 SSW 1012,5 25
22.10.2020 14:00:00 14,8 11,5 14 8 - - SSW 1012,8 24
22.10.2020 13:00:00 14,2 11,6 14 8 32 18 SSW 1013,2 30
22.10.2020 12:00:00 13,5 11,0 18 10 32 18 SSW 1013,6 30
22.10.2020 11:00:00 12,2 10,8 18 10 - - SSW 1014,2 30
22.10.2020 10:00:00 11,9 10,7 14 8 32 18 SSW 1013,7 24
22.10.2020 09:00:00 11,4 10,2 18 10 40 21 SSW 1013,1 45
22.10.2020 08:00:00 11,4 10,1 14 8 - - SSW 1012,3 45
22.10.2020 07:00:00 11,9 10,8 14 8 36 19 SSW 1012,1 30
22.10.2020 06:00:00 12,1 11,0 18 10 36 19 SSW 1012,1 21
22.10.2020 05:00:00 12,2 10,9 14 8 - - SSW 1012,0 28
22.10.2020 04:00:00 12,4 10,9 14 8 29 16 SSW 1011,9 27
22.10.2020 03:00:00 12,3 10,9 14 8 32 18 SSW 1011,7 27
22.10.2020 02:00:00 12,5 11,0 18 10 - - SSW 1011,1 27
22.10.2020 01:00:00 13,2 11,3 18 10 36 19 S 1010,6 25
22.10.2020 00:00:00 13,2 11,0 18 10 36 19 SSW 1010,1 30
21.10.2020 23:00:00 13,7 10,5 22 12 - - SSW 1009,5 40
21.10.2020 22:00:00 14,3 10,7 22 12 47 25 SW 1008,5 35
21.10.2020 21:00:00 14,6 11,3 25 14 54 29 SSW 1007,6 30
21.10.2020 20:00:00 14,9 11,3 25 14 - - SSW 1006,7 30
21.10.2020 19:00:00 15,1 10,8 25 14 54 29 SW 1006,0 35
21.10.2020 18:00:00 15,8 11,1 29 16 61 33 SW 1005,1 30
21.10.2020 17:00:00 16,5 10,6 29 16 - - SSW 1004,1 30
21.10.2020 16:00:00 16,2 10,1 29 16 58 31 SSW 1003,4 30
21.10.2020 15:00:00 17,0 9,5 29 16 58 31 SSW 1002,9 30
21.10.2020 14:00:00 16,4 9,6 29 16 - - SSW 1003,0 28
21.10.2020 13:00:00 13,2 8,8 25 14 47 25 S 1003,9 35
21.10.2020 12:00:00 11,6 8,4 22 12 40 21 S 1004,5 29
21.10.2020 11:00:00 10,4 7,5 18 10 - - S 1005,5 29
21.10.2020 10:00:00 9,9 7,0 14 8 32 18 S 1006,0 40
21.10.2020 09:00:00 9,6 6,9 18 10 36 19 S 1005,9 45
21.10.2020 08:00:00 8,9 7,4 18 10 - - SSE 1005,4 45
21.10.2020 07:00:00 8,9 7,4 18 10 40 21 S 1005,8 15
21.10.2020 06:00:00 9,2 7,4 18 10 36 19 S 1006,0 30
21.10.2020 05:00:00 9,0 7,4 18 10 - - S 1006,7 21
21.10.2020 04:00:00 9,2 7,4 14 8 36 19 S 1007,2 21
21.10.2020 03:00:00 9,4 7,8 18 10 29 16 S 1008,0 20
21.10.2020 02:00:00 9,6 8,2 14 8 - - S 1008,3 23
21.10.2020 01:00:00 10,1 9,0 14 8 29 16 S 1008,7 12
21.10.2020 00:00:00 10,4 9,2 11 6 25 14 S 1009,1 11
20.10.2020 23:00:00 10,5 9,3 11 6 - - S 1009,5 9
20.10.2020 22:00:00 10,5 9,4 14 8 29 16 S 1009,8 11
20.10.2020 21:00:00 10,5 9,2 14 8 29 16 S 1010,4 14
20.10.2020 20:00:00 10,5 9,3 14 8 - - S 1010,7 9
20.10.2020 19:00:00 10,8 9,5 14 8 32 18 S 1010,9 20
20.10.2020 18:00:00 10,8 9,4 14 8 32 18 S 1010,9 21
20.10.2020 17:00:00 10,9 9,6 14 8 - - S 1011,2 19
20.10.2020 16:00:00 - - - - - - - - -
20.10.2020 15:00:00 - - - - - - - - -
20.10.2020 14:00:00 - - - - - - - - -
20.10.2020 13:00:00 - - - - - - - - -
20.10.2020 12:00:00 9,6 7,1 18 10 40 21 S 1012,3 11
20.10.2020 11:00:00 9,3 6,2 22 12 - - S 1011,9 40
20.10.2020 10:00:00 8,4 5,9 14 8 36 19 S 1012,0 40
20.10.2020 09:00:00 7,8 5,6 22 12 36 19 S 1012,1 35
20.10.2020 08:00:00 7,8 5,4 18 10 - - S 1011,9 40
20.10.2020 07:00:00 7,5 5,1 18 10 36 19 S 1012,0 30
20.10.2020 06:00:00 7,2 4,9 11 6 36 19 SSE 1012,3 30
20.10.2020 05:00:00 7,0 4,3 14 8 - - SSE 1012,7 30
20.10.2020 04:00:00 6,9 4,0 18 10 29 16 SSE 1013,4 35
20.10.2020 03:00:00 6,0 3,2 18 10 36 19 SSE 1014,2 35
20.10.2020 02:00:00 6,3 2,8 18 10 - - SSE 1014,6 40
20.10.2020 01:00:00 5,6 2,3 22 12 43 23 SE 1015,2 30
20.10.2020 00:00:00 5,9 2,0 25 14 47 25 SE 1015,3 35
19.10.2020 23:00:00 6,6 2,1 25 14 - - SE 1016,0 40
19.10.2020 22:00:00 6,7 2,5 25 14 43 23 SE 1016,5 35
19.10.2020 21:00:00 6,3 3,0 18 10 32 18 SE 1017,8 29
19.10.2020 20:00:00 6,2 3,2 14 8 - - SE 1018,6 30
19.10.2020 19:00:00 7,0 3,5 11 6 22 12 SE 1018,8 26
19.10.2020 18:00:00 8,0 4,3 7 4 14 8 SE 1019,2 45
19.10.2020 17:00:00 8,9 3,8 7 4 - - SSE 1019,6 45
19.10.2020 16:00:00 10,0 4,2 11 6 22 12 S 1020,2 35
19.10.2020 15:00:00 8,9 4,7 7 4 18 10 S 1021,1 28
19.10.2020 14:00:00 7,0 4,9 7 4 - - SSE 1022,4 17
19.10.2020 13:00:00 7,3 5,4 11 6 18 10 SSE 1022,7 13
19.10.2020 12:00:00 7,0 5,0 7 4 14 8 S 1023,2 13
19.10.2020 11:00:00 6,8 5,2 7 4 - - SSE 1023,6 22
19.10.2020 10:00:00 6,0 4,7 7 4 11 6 SE 1023,6 -
19.10.2020 09:00:00 4,0 3,1 7 4 7 4 SSE 1023,6 5
19.10.2020 08:00:00 3,2 2,2 4 2 - - S 1023,7 -
19.10.2020 07:00:00 2,9 1,9 4 2 7 4 SE 1023,9 7
19.10.2020 06:00:00 4,7 4,6 4 2 4 2 SE 1023,7 0,1
19.10.2020 05:00:00 5,9 5,1 4 2 - - WSW 1023,8 0,2
19.10.2020 04:00:00 5,9 5,3 4 2 7 4 SW 1024,1 0,2
19.10.2020 03:00:00 5,8 4,8 4 2 7 4 S 1024,2 0,7
19.10.2020 02:00:00 5,8 4,9 4 2 - - SW 1024,3 0,5
19.10.2020 01:00:00 5,5 4,7 4 2 7 4 S 1024,4 1,9
19.10.2020 00:00:00 5,7 4,7 4 2 7 4 SW 1024,4 2,1
18.10.2020 23:00:00 5,6 4,6 4 2 - - S 1024,5 3,0
18.10.2020 22:00:00 5,1 4,0 4 2 7 4 SW 1024,4 3,9
18.10.2020 21:00:00 5,4 4,2 4 2 7 4 SW 1024,3 -
18.10.2020 20:00:00 5,2 4,1 4 2 - - SW 1024,4 -
18.10.2020 19:00:00 6,3 5,1 7 4 7 4 WSW 1023,9 -
18.10.2020 18:00:00 6,7 5,5 4 2 7 4 WSW 1023,3 6
18.10.2020 17:00:00 7,1 5,4 4 2 - - SW 1023,3 24
18.10.2020 16:00:00 6,5 5,1 4 2 14 8 WSW 1023,7 8
18.10.2020 15:00:00 6,9 5,3 7 4 11 6 WSW 1023,7 6
18.10.2020 14:00:00 7,2 5,1 7 4 - - WSW 1023,9 7
18.10.2020 13:00:00 7,1 4,4 7 4 14 8 W 1024,2 -
18.10.2020 12:00:00 6,7 3,0 7 4 11 6 SW 1024,2 -
18.10.2020 11:00:00 5,5 3,0 7 4 - - WSW 1024,4 -
18.10.2020 10:00:00 4,8 2,4 4 2 4 2 SW 1024,3 -
18.10.2020 09:00:00 4,2 2,4 4 2 7 4 SW 1023,9 -
18.10.2020 08:00:00 3,7 2,2 7 4 - - SSW 1023,6 5
18.10.2020 07:00:00 3,9 2,2 4 2 4 2 W 1023,3 5
18.10.2020 06:00:00 3,9 2,3 4 2 7 4 WSW 1023,5 5
18.10.2020 05:00:00 4,1 2,1 4 2 - - SSE 1023,3 -
18.10.2020 04:00:00 3,9 2,4 0 0 4 2 N 1023,2 -
18.10.2020 03:00:00 4,7 1,8 4 2 7 4 NNE 1023,2 -
18.10.2020 02:00:00 4,2 2,5 4 2 - - NE 1023,1 5
18.10.2020 01:00:00 3,8 2,5 4 2 7 4 NE 1023,2 5
18.10.2020 00:00:00 3,1 1,9 7 4 11 6 ENE 1023,1 5

tt = temperature
td = dewpoint
ff = wind speed
fx = gusts
dd = wind direction
ppp = reduced air pressure
vv = visibility

Next stations